Live-Position
3D-Globus wird geladen...
Über OneWeb SL0652
Group: 3 satellites
Beschreibung wird geladen...
Nächste Überflüge
Passes for default location (London). Set your location on the main map for personalized predictions.
Höhenverlauf
Loading altitude history...
No altitude history available
Zweizeiliger Elementsatz
1 55814U 23029U 26124.70622888 .00000289 00000-0 74475-3 0 9994
2 55814 87.8919 298.3898 0001751 98.6186 261.5143 13.14502556153650
Epoch: 4. Mai 2026 •
Age: 7 hours
Aktueller Status
Höhe 1209.1 km
Geschwindigkeit 7.25 km/s
Subsatellitenpunkt 30.54°N,
70.5°E
Startdatum 9. März 2023
Alter 3.1 years
Typ internet
Startgruppe
Unknown Vehicle •
OneWeb Launch 17 •
40 satellites
OneWeb SL0530
55796
OneWeb SL0534 55797
OneWeb SL0556 55798
OneWeb SL0562 55799
OneWeb SL0563 55800
OneWeb SL0564 55801
OneWeb SL0638 55802
OneWeb SL0639 55803
OneWeb SL0640 55804
OneWeb SL0641 55805
OneWeb SL0642 55806
OneWeb SL0643 55807
OneWeb SL0644 55808
OneWeb SL0645 55809
OneWeb SL0646 55810
OneWeb SL0648 55811
OneWeb SL0649 55812
OneWeb SL0650 55813
OneWeb SL0653 55815
OneWeb SL0654 55816
...and 19 more
Technische Details
Klassifizierung Payload
Masse 148.00 kg
Trockenmasse 140.00 kg
Gesamtmasse 148.00 kg
Länge 1.30 m
Durchmesser 1.00 m
Spannweite 5.00 m
Form Trapezoid+2 pan
Hersteller ONEWUS
Bus-Typ ARROW
Phasenstatus In Orbit
Besitzer/Staat ONEWEBN/UK
Most Searched
Loading...